AP893 Weather Reports


time (UTC)temp
F
wind
direction
speed
knots
gust
knots
rain 1hr
in
rain 24hr
in
rain mn
in
humidity
%
barometer
mb
20260906121009 51 0 0.0 0.0 0.00 0.01 0.00 91 1017.2
20260906120009 51 0 0.0 0.0 0.00 0.01 0.00 91 1017.2
20260906115010 51 0 0.0 0.0 0.00 0.01 0.00 91 1017.2
20260906114010 51 0 0.0 0.0 0.00 0.01 0.00 91 1017.2
20260906113009 51 0 0.0 0.0 0.00 0.01 0.00 90 1017.2
20260906112010 51 0 0.0 0.0 0.00 0.01 0.00 90 1017.1
20260906110009 51 0 0.0 0.0 0.00 0.01 0.00 90 1017.1
20260906105010 51 0 0.0 0.0 0.00 0.01 0.00 89 1017.1
20260906103011 52 0 0.0 0.0 0.00 0.01 0.00 88 1017.2
20260906102010 52 0 0.0 0.0 0.00 0.01 0.00 87 1017.2
20260906100010 52 0 0.0 0.0 0.00 0.01 0.00 85 1017.2
20260906095010 53 0 0.0 0.0 0.00 0.01 0.00 84 1017.3
20260906094010 53 0 0.0 0.0 0.00 0.01 0.00 84 1017.2
20260906091010 54 0 0.0 0.0 0.00 0.01 0.00 82 1017.3
20260906090010 54 0 0.0 0.0 0.00 0.01 0.00 82 1017.3
20260906085010 54 0 0.0 0.0 0.00 0.01 0.00 83 1017.3
20260906083010 54 0 0.0 0.0 0.00 0.01 0.00 82 1017.5
20260906081010 54 0 0.0 0.0 0.00 0.01 0.00 81 1017.5
20260906080010 54 0 0.0 0.0 0.00 0.01 0.00 80 1017.5
20260906075009 54 0 0.0 0.0 0.00 0.01 0.00 80 1017.5
20260906074010 54 0 0.0 0.0 0.00 0.01 0.00 79 1017.5
20260906072010 55 0 0.0 0.0 0.00 0.01 0.00 78 1017.7
20260906071011 55 0 0.0 0.0 0.00 0.01 0.00 77 1017.7
20260906070010 55 0 0.0 0.0 0.00 0.01 0.00 76 1017.5
20260906065010 56 0 0.0 0.0 0.00 0.01 0.01 76 1017.5
20260906064009 56 0 0.0 0.0 0.00 0.01 0.01 75 1017.7
20260906063010 56 0 0.0 0.0 0.00 0.01 0.01 74 1017.7
20260906062009 57 0 0.0 0.0 0.00 0.01 0.01 72 1017.8
20260906061010 57 0 0.0 0.0 0.00 0.01 0.01 71 1017.8
20260906060009 57 0 0.0 0.0 0.00 0.01 0.01 71 1017.8
20260906055009 58 0 0.0 0.0 0.00 0.01 0.01 70 1017.9
20260906054009 58 0 0.0 0.0 0.00 0.01 0.01 68 1017.9
20260906051010 60 0 0.0 0.0 0.00 0.01 0.01 64 1018.0
20260906050010 60 0 0.0 0.0 0.00 0.01 0.01 63 1018.0
20260906045009 61 0 0.0 0.0 0.00 0.01 0.01 62 1018.1
20260906044010 61 0 0.0 0.0 0.00 0.01 0.01 60 1018.1
20260906043010 62 0 0.0 0.0 0.00 0.01 0.01 58 1018.0
20260906042010 63 0 0.0 0.0 0.00 0.01 0.01 58 1018.0
20260906041010 64 0 0.0 0.0 0.00 0.01 0.01 56 1018.1
20260906035010 66 0 0.0 0.0 0.00 0.01 0.01 51 1018.0
20260906034009 66 0 0.0 0.0 0.00 0.01 0.01 50 1017.2
20260906033010 67 0 0.0 0.0 0.01 0.01 0.01 48 1017.9
20260906032009 68 0 0.0 0.0 0.01 0.01 0.01 47 1017.0
20260906031009 68 0 0.0 0.0 0.01 0.01 0.01 47 1017.0
20260906030013 69 0 0.0 0.0 0.01 0.01 0.01 46 1016.2
20260906025010 69 0 0.0 0.0 0.01 0.01 0.01 45 1017.7
20260906024010 70 0 0.0 0.0 0.01 0.01 0.01 43 1017.1
20260906023010 71 0 0.0 0.0 0.00 0.00 0.00 42 1017.7
20260906022009 72 0 0.0 0.0 0.00 0.00 0.00 41 1017.7
20260906021009 73 0 0.0 2.6 0.00 0.00 0.00 40 1017.7
20260906020009 73 273 0.0 5.2 0.00 0.00 0.00 39 1017.8
20260906015009 74 213 0.0 0.0 0.00 0.00 0.00 38 1017.8
20260906013009 75 213 0.0 0.0 0.00 0.00 0.00 36 1017.8
20260906010009 77 165 0.9 5.2 0.00 0.00 0.00 33 1017.8
20260906005009 78 289 0.9 6.1 0.00 0.00 0.00 31 1017.7
20260906004010 79 250 0.0 5.2 0.00 0.00 0.00 30 1017.7
20260906002010 79 296 1.7 7.0 0.00 0.00 0.00 30 1017.8
20260906000009 80 178 1.7 7.0 0.00 0.00 0.00 29 1017.7
20260905235011 80 146 0.9 6.1 0.00 0.00 0.00 30 1017.8
20260905230012 79 288 0.9 8.7 0.00 0.00 0.00 32 1017.9
20260905225010 78 145 0.9 7.0 0.00 0.00 0.00 32 1018.1
20260905223010 78 98 1.7 5.2 0.00 0.00 0.00 32 1018.3
20260905221010 79 216 0.9 10.4 0.00 0.00 0.00 32 1018.2
20260905220010 80 301 1.7 11.3 0.00 0.00 0.00 30 1018.3
20260905215010 80 215 0.9 7.0 0.00 0.00 0.00 30 1018.4
20260905214010 80 271 2.6 8.7 0.00 0.00 0.00 29 1018.3
20260905213010 79 254 0.0 6.1 0.00 0.00 0.00 30 1018.3
20260905212009 79 16 0.9 10.4 0.00 0.00 0.00 31 1018.3
20260905211009 79 320 0.0 5.2 0.00 0.00 0.00 31 1018.4
20260905205010 80 178 1.7 10.4 0.00 0.00 0.00 30 1018.3
20260905204010 80 162 1.7 7.8 0.00 0.00 0.00 31 1018.2
20260905203010 80 277 2.6 10.4 0.00 0.00 0.00 31 1018.3
20260905202010 80 339 0.9 7.8 0.00 0.00 0.00 32 1018.3
20260905200011 80 334 2.6 7.8 0.00 0.00 0.00 32 1018.4
20260905194010 79 34 2.6 8.7 0.00 0.00 0.00 32 1018.4
20260905193010 79 149 3.5 8.7 0.00 0.00 0.00 33 1018.4
20260905192010 79 97 0.9 10.4 0.00 0.00 0.00 33 1018.4
20260905191010 79 334 1.7 10.4 0.00 0.00 0.00 33 1018.5
20260905190010 78 285 3.5 8.7 0.00 0.00 0.00 34 1018.5
20260905185013 78 190 1.7 8.7 0.00 0.00 0.00 33 1018.6
20260905184010 78 295 3.5 10.4 0.00 0.00 0.00 34 1018.6
20260905183009 78 291 0.9 7.0 0.00 0.00 0.00 34 1018.5
20260905182010 78 69 2.6 6.1 0.00 0.00 0.00 36 1018.5
20260905181010 77 246 0.9 6.1 0.00 0.00 0.00 38 1018.4
20260905175009 74 61 0.0 7.8 0.00 0.00 0.00 41 1018.2
20260905174010 73 3 3.5 11.3 0.00 0.00 0.00 40 1018.1
20260905173010 72 1 1.7 7.0 0.00 0.00 0.00 42 1018.1
20260905172009 71 307 0.9 5.2 0.00 0.00 0.00 43 1018.1
20260905171010 70 355 0.9 6.1 0.00 0.00 0.00 44 1018.1
20260905165010 69 17 1.7 6.1 0.00 0.00 0.00 46 1018.1
20260905163010 68 227 0.0 2.6 0.00 0.00 0.00 52 1017.8
20260905162010 67 227 0.0 0.0 0.00 0.00 0.00 56 1017.8
20260905161010 66 227 0.0 0.0 0.00 0.00 0.00 58 1017.7
20260905155009 62 227 0.0 0.0 0.00 0.00 0.00 65 1017.7
20260905154009 61 227 0.0 0.0 0.00 0.00 0.00 67 1017.7
20260905152009 59 227 0.0 0.0 0.00 0.00 0.00 69 1017.5
20260905151010 58 227 0.0 0.0 0.00 0.00 0.00 70 1017.4
20260905150010 58 227 0.0 0.0 0.00 0.00 0.00 71 1017.5
20260905145011 57 227 0.0 0.0 0.00 0.00 0.00 72 1017.4
20260905144009 56 227 0.0 0.0 0.00 0.00 0.00 75 1017.4
20260905143009 56 227 0.0 0.0 0.00 0.00 0.00 77 1017.4
20260905142010 55 227 0.0 0.0 0.00 0.00 0.00 77 1017.3
20260905141010 55 227 0.0 0.0 0.00 0.00 0.00 77 1017.3
20260905140009 55 227 0.0 0.0 0.00 0.00 0.00 76 1017.2
20260905135009 55 227 0.0 0.0 0.00 0.00 0.00 75 1017.1
20260905134010 55 227 0.0 0.0 0.00 0.00 0.00 73 1017.1
20260905133010 56 227 0.0 0.0 0.00 0.00 0.00 72 1016.9
20260905132009 56 227 0.0 0.0 0.00 0.00 0.00 72 1016.9
20260905131009 56 227 0.0 0.0 0.00 0.00 0.00 71 1016.8
20260905130010 57 227 0.0 0.0 0.00 0.00 0.00 70 1016.8
20260905125009 57 227 0.0 0.0 0.00 0.00 0.00 69 1016.9